[[{"header":{"parameterUnit":"m.s-1","parameterCategory":1,"la1":30.2991,"la2":30.254,"lo1":-89.0895,"lo2":-89.0444,"dy":0.0017,"dx":0.0017,"nx":28,"ny":28,"refTime":"2024-07-28T09:00:00:Z","depth":0,"parameterNumber":2,"parameterNumberName":"U-component_of_WINDS"},"data":[0,0,0,0,0,0,0,0,0,0,0,0,0,0,0,0,0,0,0,0,0,0,0,0,0,0,0,0,0,0,0,0,0,0,0,0,0,0,0,0,0,0,0,0,0,0,0,0,0,0,0,0,0,0,0,0,0,0,-1.1713,-1.1712,0,-1.1677,-1.1677,-1.1677,-1.1644,-1.1643,-1.1643,-1.1643,-1.1607,-1.1607,-1.1606,0,0,0,0,0,0,0,0,0,0,0,0,0,-1.1753,-1.1752,-1.1713,-1.1712,-1.1712,-1.1677,-1.1677,-1.1676,-1.1644,-1.1643,-1.1643,-1.1642,-1.1607,-1.1607,-1.1606,0,0,0,0,0,0,0,0,0,0,0,0,0,-1.1728,-1.1752,-1.1713,-1.1691,-1.1689,-1.1678,-1.1677,-1.1676,-1.1644,-1.1643,-1.1643,-1.1642,-1.1608,-1.1607,-1.1606,-1.1613,0,0,-1.1603,-1.1603,0,0,0,0,0,0,0,0,-1.173,-1.1727,-1.1695,-1.1693,-1.169,-1.1664,-1.1678,-1.1655,-1.1644,-1.1661,-1.1643,-1.1642,-1.1627,-1.1624,-1.1619,-1.1611,-1.161,-1.1603,-1.1603,-1.1602,-1.1602,0,0,0,0,0,0,0,-1.1731,-1.1728,-1.1699,-1.1694,-1.1692,-1.1684,-1.168,-1.1674,-1.1648,-1.166,-1.1657,-1.1653,-1.1625,-1.162,-1.1618,-1.1609,-1.1603,-1.1602,-1.1602,-1.1602,-1.1606,-1.1607,0,0,0,0,0,0,-1.1736,-1.173,-1.17,-1.1698,-1.1709,-1.1684,-1.1679,-1.1673,-1.1648,-1.1643,-1.1654,-1.1652,-1.1622,-1.1619,-1.1617,-1.1623,-1.1602,-1.1602,-1.1601,-1.1606,-1.1606,-1.1607,0,0,0,0,0,0,-1.1737,-1.1734,-1.1701,-1.1713,-1.1708,-1.1684,-1.1677,-1.1673,-1.1667,-1.1643,-1.1639,-1.1653,-1.1621,-1.1618,-1.1614,-1.1622,-1.1601,-1.16,-1.1605,-1.1606,-1.1607,-1.1637,0,0,0,0,0,0,-1.1739,-1.1734,-1.1736,-1.1713,-1.1708,-1.1699,-1.1678,-1.1673,-1.1666,-1.1663,-1.1641,-1.1637,-1.162,-1.1616,-1.1613,-1.162,-1.16,-1.1604,-1.1605,-1.1606,-1.1635,-1.1639,-1.1642,0,0,0,0,0,-1.174,-1.1746,-1.1737,-1.1733,-1.171,-1.17,-1.1696,-1.1677,-1.1667,-1.1669,-1.1654,-1.1638,-1.1621,-1.1616,-1.1613,-1.1619,-1.1603,-1.1605,-1.1606,-1.1634,-1.1638,-1.1642,0,0,0,0,0,0,-1.1771,-1.1743,-1.1732,-1.1731,-1.1718,-1.1694,-1.1696,-1.1682,-1.1672,-1.1669,-1.1646,-1.1641,-1.164,-1.1629,-1.1623,-1.1625,-1.161,-1.1611,-1.1632,-1.1636,-1.1639,-1.1642,-1.1599,0,0,0,0,0,-1.1778,-1.1772,-1.1748,-1.1749,-1.1743,-1.1721,-1.1716,-1.1702,-1.1687,-1.1682,-1.1666,-1.1653,-1.1645,-1.164,-1.1631,-1.1634,-1.1629,-1.1637,-1.164,-1.1643,-1.1644,-1.1645,-1.1649,-1.1612,-1.1612,-1.1612,0,0,-1.1792,-1.1776,-1.1773,-1.1755,-1.1743,-1.1738,-1.1716,-1.1711,-1.1707,-1.1681,-1.1676,-1.1665,-1.1649,-1.1648,-1.1647,-1.1639,-1.1653,-1.1645,-1.1648,-1.1647,-1.1647,-1.1651,-1.1654,-1.1613,-1.1612,-1.1612,0,0,-1.1814,-1.1801,-1.1801,-1.179,-1.1772,-1.1758,-1.1758,-1.1736,-1.1728,-1.1723,-1.1703,-1.1698,-1.1685,-1.1674,-1.1667,-1.1686,-1.1672,-1.1684,-1.1702,-1.1703,-1.1706,-1.1708,-1.1716,-1.1718,-1.1685,-1.1685,-1.1685,0,-1.1834,-1.1824,-1.1803,-1.1799,-1.1792,-1.1768,-1.1768,-1.1758,-1.1739,-1.1735,-1.1726,-1.1709,-1.1697,-1.1694,-1.1699,-1.1694,-1.1693,-1.1686,-1.1707,-1.1709,-1.1711,-1.1718,-1.1721,-1.1687,-1.1687,-1.1687,-1.1687,0,-1.1849,-1.1843,-1.1845,-1.1827,-1.182,-1.1818,-1.1797,-1.1793,-1.178,-1.1766,-1.1762,-1.1747,-1.1734,-1.1733,-1.172,-1.1728,-1.1724,-1.1712,-1.1696,-1.1717,-1.1723,-1.1725,-1.1689,-1.1689,-1.1688,-1.1688,0,0,-1.189,-1.186,-1.1861,-1.1853,-1.1832,-1.1827,-1.1825,-1.1813,-1.181,-1.1798,-1.1795,-1.1785,-1.1773,-1.1765,-1.1751,-1.1752,-1.1769,-1.174,-1.1739,-1.1746,-1.1778,-1.1787,-1.179,-1.176,-1.176,-1.176,-1.1779,0,-1.1908,-1.1902,-1.1883,-1.1883,-1.1877,-1.1855,-1.1853,-1.184,-1.1828,-1.1821,-1.1808,-1.1801,-1.1786,-1.1781,-1.1782,-1.1767,-1.1775,-1.1766,-1.1757,-1.1757,-1.1762,-1.1793,-1.1803,-1.1822,-1.1781,-1.1782,-1.1782,0,-1.1929,-1.1919,-1.1918,-1.1898,-1.1894,-1.1893,-1.1881,-1.1875,-1.186,-1.1851,-1.1843,-1.1827,-1.1824,-1.181,-1.1805,-1.1799,-1.1795,-1.1788,-1.1788,-1.1786,-1.1771,-1.1793,-1.1827,-1.183,-1.1785,-1.1785,-1.1785,0,-1.1959,-1.1944,-1.1942,-1.1935,-1.1912,-1.1912,-1.1902,-1.1887,-1.1881,-1.1871,-1.1867,-1.1856,-1.1851,-1.1843,-1.1825,-1.1817,-1.1823,-1.1807,-1.1815,-1.1816,-1.1817,-1.1818,-1.1852,-1.1815,-1.1815,-1.1815,-1.1815,0,-1.1982,-1.1983,-1.1955,-1.1953,-1.1953,-1.1932,-1.1933,-1.1921,-1.1908,-1.1904,-1.1885,-1.1882,-1.1858,-1.1853,-1.1839,-1.1838,-1.1835,-1.1828,-1.1824,-1.183,-1.1831,-1.1826,-1.1825,-1.1816,-1.1815,-1.1815,-1.1815,0,-1.2015,-1.1997,-1.1993,-1.1971,-1.1966,-1.1967,-1.1948,-1.1946,-1.1933,-1.1928,-1.1926,-1.1905,-1.1898,-1.1879,-1.1867,-1.1858,-1.186,-1.1853,-1.1865,-1.1863,-1.1872,-1.1871,-1.1904,-1.1908,-1.1869,-1.187,-1.187,0,-1.2031,-1.2031,-1.2009,-1.2005,-1.1996,-1.199,-1.1984,-1.1963,-1.1958,-1.1942,-1.1942,-1.1933,-1.1925,-1.1914,-1.1898,-1.1889,-1.1882,-1.1894,-1.188,-1.1886,-1.1882,-1.1882,-1.1882,-1.1897,-1.1897,-1.1898,-1.1898,0,-1.2062,-1.2053,-1.2044,-1.2033,-1.2027,-1.2017,-1.2006,-1.2004,-1.1981,-1.1976,-1.1968,-1.1962,-1.195,-1.1941,-1.1929,-1.192,-1.1906,-1.1903,-1.1904,-1.191,-1.1916,-1.1913,-1.1873,-1.1902,-1.1902,-1.1901,-1.1901,-1.1901,-1.2087,-1.2085,-1.207,-1.2062,-1.2052,-1.2042,-1.2039,-1.2026,-1.2018,-1.2007,-1.1995,-1.1989,-1.1975,-1.1958,-1.1949,-1.1944,-1.1937,-1.1939,-1.1939,-1.194,-1.1943,-1.1917,-1.1942,-1.1942,-1.1942,-1.1942,-1.1941,0,-1.2116,-1.2105,-1.2098,-1.2083,-1.2077,-1.2064,-1.2051,-1.2047,-1.2042,-1.203,-1.2022,-1.2013,-1.2005,-1.1989,-1.1979,-1.1978,-1.1972,-1.1976,-1.1976,-1.1974,-1.195,-1.1949,-1.1982,-1.1982,-1.1982,-1.1982,-1.1982,-1.1982,-1.2131,-1.2128,-1.2117,-1.211,-1.2099,-1.2092,-1.2086,-1.2077,-1.2068,-1.2059,-1.2052,-1.2041,-1.2028,-1.2017,-1.2009,-1.2005,-1.2002,-1.201,-1.2003,-1.198,-1.1976,-1.1972,-1.1972,-1.2009,-1.2009,-1.2028,-1.2028,-1.2028]},{"header":{"parameterUnit":"m.s-1","parameterCategory":1,"la1":30.2991,"la2":30.254,"lo1":-89.0895,"lo2":-89.0444,"dy":0.0017,"dx":0.0017,"nx":28,"ny":28,"refTime":"2024-07-28T09:00:00:Z","depth":0,"parameterNumber":3,"parameterNumberName":"V-component_of_WINDS"},"data":[0,0,0,0,0,0,0,0,0,0,0,0,0,0,0,0,0,0,0,0,0,0,0,0,0,0,0,0,0,0,0,0,0,0,0,0,0,0,0,0,0,0,0,0,0,0,0,0,0,0,0,0,0,0,0,0,0,0,3.6388,3.6388,0,3.6346,3.6345,3.6345,3.6297,3.6296,3.6295,3.6295,3.6249,3.6248,3.6248,0,0,0,0,0,0,0,0,0,0,0,0,0,3.6428,3.6427,3.6389,3.6388,3.6387,3.6346,3.6345,3.6344,3.6297,3.6296,3.6295,3.6295,3.6249,3.6248,3.6248,0,0,0,0,0,0,0,0,0,0,0,0,0,3.64,3.6427,3.6389,3.6359,3.6356,3.6346,3.6345,3.6344,3.6297,3.6296,3.6295,3.6294,3.6249,3.6249,3.6248,3.6263,0,0,3.6245,3.6245,0,0,0,0,0,0,0,0,3.6402,3.6399,3.6364,3.6361,3.6357,3.6326,3.6342,3.6317,3.6297,3.6319,3.6295,3.6294,3.6275,3.6272,3.6266,3.6261,3.6259,3.6245,3.6244,3.6244,3.6244,0,0,0,0,0,0,0,3.6404,3.6401,3.6371,3.6363,3.6359,3.6347,3.6342,3.6337,3.6304,3.6317,3.6314,3.6309,3.6273,3.6267,3.6265,3.6258,3.6245,3.6244,3.6244,3.6243,3.6264,3.6265,0,0,0,0,0,0,3.6411,3.6402,3.6373,3.637,3.6378,3.6347,3.6342,3.6337,3.6303,3.6297,3.631,3.6307,3.6269,3.6266,3.6263,3.6279,3.6244,3.6243,3.6243,3.6263,3.6264,3.6266,0,0,0,0,0,0,3.6412,3.6408,3.6375,3.6385,3.638,3.6348,3.6343,3.6336,3.633,3.6298,3.6292,3.6311,3.6268,3.6264,3.6264,3.6277,3.6243,3.6242,3.6262,3.6263,3.6265,3.6312,0,0,0,0,0,0,3.6413,3.6409,3.6415,3.6386,3.638,3.6377,3.6343,3.6336,3.6329,3.6325,3.6297,3.6291,3.6267,3.6265,3.6263,3.6275,3.6241,3.626,3.6263,3.6264,3.6309,3.6315,3.6321,0,0,0,0,0,3.6415,3.6429,3.6416,3.6412,3.6387,3.6377,3.6374,3.6347,3.6331,3.6336,3.6315,3.6292,3.6276,3.6266,3.6263,3.6275,3.6259,3.6262,3.6264,3.6307,3.6314,3.632,0,0,0,0,0,0,3.646,3.6425,3.6409,3.6415,3.64,3.6369,3.6376,3.6355,3.6343,3.634,3.6306,3.63,3.6304,3.6289,3.6278,3.6288,3.6264,3.6266,3.6298,3.6305,3.631,3.6314,3.6241,0,0,0,0,0,3.6471,3.6467,3.6436,3.6445,3.6438,3.6408,3.6403,3.6384,3.6366,3.6359,3.6338,3.6322,3.6313,3.6308,3.6298,3.6307,3.63,3.6314,3.632,3.6324,3.6326,3.6331,3.6337,3.6273,3.6273,3.6273,0,0,3.6493,3.6474,3.6473,3.6454,3.6439,3.6436,3.6403,3.64,3.6397,3.6358,3.6357,3.6341,3.632,3.6325,3.6326,3.6313,3.6342,3.6327,3.6331,3.6331,3.6334,3.634,3.6345,3.6275,3.6275,3.6275,0,0,3.6532,3.6517,3.6523,3.6509,3.6488,3.6469,3.647,3.6443,3.6431,3.6429,3.64,3.6396,3.6381,3.6368,3.6359,3.6394,3.6372,3.6391,3.642,3.6425,3.643,3.6434,3.6447,3.6452,3.6393,3.6393,3.6394,0,3.6563,3.6557,3.6528,3.6527,3.652,3.6485,3.649,3.6478,3.6455,3.6451,3.6437,3.6418,3.6402,3.6403,3.6412,3.6405,3.6406,3.6394,3.6431,3.6435,3.6439,3.6451,3.6456,3.6396,3.6396,3.6395,3.6395,0,3.6595,3.6591,3.6598,3.6578,3.6571,3.6573,3.6544,3.6541,3.6522,3.6504,3.6502,3.6481,3.6467,3.6466,3.6447,3.6464,3.6457,3.6438,3.6413,3.6448,3.6459,3.6463,3.64,3.6399,3.6398,3.6397,0,0,3.6661,3.6626,3.6629,3.6619,3.6594,3.659,3.6591,3.6578,3.6575,3.656,3.656,3.6549,3.6531,3.6522,3.6501,3.6505,3.6534,3.6485,3.6484,3.6495,3.6553,3.6568,3.6574,3.6519,3.652,3.6521,3.6555,0,3.6696,3.6697,3.6671,3.6678,3.6674,3.6642,3.6642,3.6627,3.661,3.6604,3.6584,3.6578,3.6554,3.6548,3.6551,3.653,3.6545,3.6527,3.6519,3.6519,3.6526,3.6579,3.6595,3.6628,3.6559,3.6559,3.656,0,3.6737,3.6726,3.6733,3.6708,3.6705,3.6707,3.6693,3.6687,3.6669,3.6656,3.6646,3.6622,3.6621,3.6598,3.6596,3.6584,3.6579,3.6568,3.6569,3.6567,3.6542,3.658,3.6638,3.6643,3.6566,3.6565,3.6565,0,3.6786,3.6772,3.6774,3.6767,3.6738,3.674,3.6727,3.6708,3.6702,3.6689,3.6685,3.6672,3.6665,3.6656,3.663,3.6615,3.6631,3.6605,3.662,3.6621,3.6625,3.6625,3.6684,3.6621,3.6621,3.6621,3.6621,0,3.6827,3.6833,3.6796,3.6798,3.6803,3.6774,3.678,3.6764,3.6747,3.6745,3.6715,3.6714,3.6679,3.6674,3.6653,3.6655,3.6652,3.6641,3.6636,3.6644,3.6646,3.6641,3.6638,3.6623,3.6622,3.6622,3.6622,0,3.6883,3.6858,3.6859,3.6832,3.6825,3.683,3.6806,3.6806,3.6788,3.6785,3.6783,3.6754,3.6746,3.6719,3.6704,3.669,3.6698,3.6687,3.6705,3.6701,3.6718,3.6717,3.6777,3.6783,3.6716,3.6716,3.6717,0,3.6912,3.6915,3.6889,3.6885,3.6875,3.687,3.6864,3.6834,3.6829,3.6809,3.6812,3.6802,3.6792,3.6781,3.6758,3.6746,3.6735,3.6757,3.6733,3.6742,3.6736,3.6736,3.6737,3.6762,3.6763,3.6764,3.6764,0,3.6965,3.6953,3.6946,3.6934,3.6928,3.6917,3.6905,3.6904,3.6871,3.6866,3.6859,3.6851,3.6837,3.6827,3.6812,3.6798,3.6776,3.6772,3.6775,3.6784,3.6794,3.6789,3.6719,3.6771,3.677,3.6769,3.6769,3.6769,3.7008,3.701,3.6992,3.6985,3.6973,3.6962,3.6961,3.6943,3.6936,3.6922,3.6905,3.69,3.6881,3.6859,3.6847,3.6842,3.6829,3.6834,3.6835,3.6837,3.6841,3.6795,3.6839,3.6839,3.6838,3.6838,3.6838,0,3.7061,3.7048,3.7042,3.7026,3.702,3.7,3.6985,3.6982,3.6977,3.6962,3.6954,3.6945,3.6936,3.6912,3.69,3.6901,3.689,3.6899,3.6899,3.6896,3.6852,3.6851,3.6908,3.6908,3.6907,3.6907,3.6907,3.6907,3.7088,3.7091,3.7076,3.7073,3.7059,3.7054,3.7047,3.7037,3.7025,3.7017,3.7009,3.6994,3.6976,3.6963,3.6953,3.6946,3.6944,3.6956,3.6946,3.6906,3.6899,3.6893,3.6891,3.6955,3.6955,3.699,3.699,3.699]}]]